START_TIME,STEP,MOV.,M15,t_acc.,M20,t_acc.
1979-07-17 21:00:43.870 ,0,0,0.,24.0,0.,24.0
1979-07-17 21:01:07.870 ,0,1,0.,24.0,0.,24.0
1979-07-17 21:01:31.870 ,0,0,0.,24.0,0.,24.0
1979-07-17 21:01:55.870 ,1,1,0.,24.0,0.,24.0
1979-07-17 21:02:19.870 ,1,0,0.,24.0,0.,24.0
1979-07-17 21:02:43.870 ,2,1,0.,24.0,0.,24.0
1979-07-17 21:03:07.870 ,2,0,0.,24.0,0.,24.0
1979-07-17 21:03:31.870 ,3,1,0.,24.0,0.,24.0
1979-07-17 21:03:55.870 ,3,0,0.,24.0,0.,24.0
1979-07-17 21:04:19.870 ,4,1,0.,24.0,0.,24.0
1979-07-17 21:04:43.870 ,4,0,0.,24.0,0.,24.0
1979-07-17 21:05:07.870 ,5,1,0.,24.0,0.,24.0
1979-07-17 21:05:31.870 ,5,0,0.,24.0,0.,24.0
1979-07-17 21:05:55.870 ,6,1,0.,24.0,0.,24.0
1979-07-17 21:06:19.870 ,6,0,0.,24.0,0.,24.0
1979-07-17 21:06:43.870 ,7,0,0.,24.0,0.,24.0
1979-07-17 21:07:07.870 ,7,0,0.,24.0,0.,24.0
1979-07-17 21:07:31.870 ,3,1,0.,24.0,0.,24.0
1979-07-17 21:07:55.870 ,0,1,0.,24.0,0.,24.0
1979-07-17 21:08:19.870 ,4,1,0.,24.0,0.,24.0
1979-07-17 21:08:43.870 ,7,1,0.,24.0,0.,24.0
1979-07-17 21:09:07.870 ,3,1,0.,24.0,0.,24.0
1979-07-17 21:09:31.870 ,0,1,0.,24.0,0.,24.0
1979-07-17 21:09:55.870 ,4,1,0.,24.0,0.,24.0
1979-07-17 21:10:19.870 ,7,1,0.,24.0,0.,24.0
1979-07-17 21:10:43.870 ,3,1,0.,24.0,0.,24.0
1979-07-17 21:11:07.870 ,0,1,0.,24.0,0.,24.0
1979-07-17 21:11:31.870 ,4,1,0.,24.0,0.,24.0
1979-07-17 21:11:55.870 ,7,1,0.,24.0,0.,24.0
1979-07-17 21:12:19.870 ,3,1,0.,24.0,0.,24.0
1979-07-17 21:12:43.870 ,0,1,0.,24.0,0.,24.0
1979-07-17 21:13:07.870 ,4,1,0.,24.0,0.,24.0
1979-07-17 21:13:31.870 ,7,1,0.,24.0,0.,24.0
1979-07-17 21:13:55.870 ,3,1,0.,24.0,0.,24.0
1979-07-17 21:14:19.870 ,0,1,0.,24.0,0.,24.0
1979-07-17 21:14:43.870 ,4,1,0.,24.0,0.,24.0
1979-07-17 21:15:07.870 ,7,1,0.,24.0,0.,24.0
1979-07-17 21:15:31.870 ,3,1,0.,24.0,0.,24.0
1979-07-17 21:15:55.870 ,0,1,0.,24.0,0.,24.0
1979-07-17 21:16:19.870 ,4,1,0.,24.0,0.,24.0
1979-07-17 21:16:43.870 ,7,1,0.,24.0,0.,24.0
1979-07-17 21:17:07.870 ,3,1,0.,24.0,0.,24.0
1979-07-17 21:17:31.870 ,0,1,0.,24.0,0.,24.0
1979-07-17 21:17:55.870 ,0,0,0.,24.0,0.,24.0
1979-07-17 21:18:19.870 ,0,0,0.,24.0,0.,24.0
1979-07-17 21:18:43.870 ,5,1,0.,24.0,0.,24.0
1979-07-17 21:19:07.870 ,5,0,0.,24.0,0.,24.0
1979-07-17 21:19:31.870 ,4,1,0.,24.0,0.,24.0
1979-07-17 21:19:55.870 ,4,0,0.,24.0,0.,24.0
1979-07-17 21:20:19.870 ,3,1,0.,24.0,0.,24.0
1979-07-17 21:20:43.870 ,3,0,0.,24.0,0.,24.0
1979-07-17 21:21:07.870 ,2,1,0.,24.0,0.,24.0
1979-07-17 21:21:31.870 ,2,0,0.,24.0,0.,24.0
1979-07-17 21:21:55.870 ,1,1,0.,24.0,0.,24.0
1979-07-17 21:22:19.870 ,1,0,0.,24.0,0.,24.0
1979-07-17 21:22:43.870 ,0,1,0.,24.0,0.,24.0
1979-07-17 21:23:07.870 ,0,0,0.,24.0,0.,24.0
1979-07-17 21:23:31.870 ,0,1,0.,24.0,0.,24.0
1979-07-17 21:23:55.870 ,0,0,0.,24.0,0.,24.0
1979-07-17 21:24:19.870 ,1,1,0.,24.0,0.,24.0
1979-07-17 21:24:43.870 ,1,0,0.,24.0,0.,24.0
1979-07-17 21:25:07.870 ,2,1,0.,24.0,0.,24.0
1979-07-17 21:25:31.870 ,2,0,0.,24.0,0.,24.0
1979-07-17 21:25:55.870 ,3,1,0.,24.0,0.,24.0
1979-07-17 21:26:19.870 ,3,0,0.,24.0,0.,24.0
1979-07-17 21:26:43.870 ,4,1,0.,24.0,0.,24.0
1979-07-17 21:27:07.870 ,4,0,0.,24.0,0.,24.0
1979-07-17 21:27:31.870 ,5,1,0.,24.0,0.,24.0
1979-07-17 21:27:55.870 ,5,0,0.,24.0,0.,24.0
1979-07-17 21:28:19.870 ,6,1,0.,24.0,0.,24.0
1979-07-17 21:28:43.870 ,6,0,0.,24.0,0.,24.0
1979-07-17 21:29:07.870 ,7,1,0.,24.0,0.,24.0
1979-07-17 21:29:31.870 ,7,0,0.,24.0,0.,24.0
1979-07-17 21:29:55.870 ,7,1,0.,24.0,0.,24.0
1979-07-17 21:30:19.870 ,7,0,0.,24.0,0.,24.0
1979-07-17 21:30:43.870 ,6,1,0.,24.0,0.,24.0
1979-07-17 21:31:07.870 ,6,0,0.,24.0,0.,24.0
1979-07-17 21:31:31.870 ,5,1,0.,24.0,0.,24.0
1979-07-17 21:31:55.870 ,5,0,0.,24.0,0.,24.0
1979-07-17 21:32:19.870 ,4,1,0.,24.0,0.,24.0
1979-07-17 21:32:43.870 ,4,0,0.,24.0,0.,24.0
1979-07-17 21:33:07.870 ,3,1,0.,24.0,0.,24.0
1979-07-17 21:33:31.870 ,3,0,0.,24.0,0.,24.0
1979-07-17 21:33:55.870 ,2,1,0.,24.0,0.,24.0
1979-07-17 21:34:19.870 ,2,0,0.,24.0,0.,24.0
1979-07-17 21:34:43.870 ,1,1,0.,24.0,0.,24.0
1979-07-17 21:35:07.870 ,1,0,0.,24.0,0.,24.0
1979-07-17 21:35:31.870 ,0,1,0.,24.0,0.,24.0
1979-07-17 21:35:55.870 ,0,0,0.,24.0,0.,24.0
1979-07-17 21:36:19.870 ,0,1,0.,24.0,0.,24.0
1979-07-17 21:36:43.870 ,0,0,0.,24.0,0.,24.0
1979-07-17 21:37:07.870 ,1,1,0.,24.0,0.,24.0
1979-07-17 21:37:31.870 ,1,0,0.,24.0,0.,24.0
1979-07-17 21:37:55.870 ,2,1,0.,24.0,0.,24.0
1979-07-17 21:38:19.870 ,2,0,0.,24.0,0.,24.0
1979-07-17 21:38:43.870 ,3,1,0.,24.0,0.,24.0
1979-07-17 21:39:07.870 ,3,0,0.,24.0,0.,24.0
1979-07-17 21:39:31.870 ,4,1,0.,24.0,0.,24.0
1979-07-17 21:39:55.870 ,4,0,0.,24.0,0.,24.0
1979-07-17 21:40:19.870 ,5,1,0.,24.0,0.,24.0
1979-07-17 21:40:43.870 ,5,0,0.,24.0,0.,24.0
1979-07-17 21:41:07.870 ,6,1,0.,24.0,0.,24.0
1979-07-17 21:41:31.870 ,6,0,0.,24.0,0.,24.0
1979-07-17 21:41:55.870 ,7,1,0.,24.0,0.,24.0
1979-07-17 21:42:19.870 ,7,0,0.,24.0,0.,24.0
1979-07-17 21:42:43.870 ,7,1,0.,24.0,0.,24.0
1979-07-17 21:43:07.870 ,7,0,0.,24.0,0.,24.0
1979-07-17 21:43:31.870 ,6,1,0.,24.0,0.,24.0
1979-07-17 21:43:55.870 ,6,0,0.,24.0,0.,24.0
1979-07-17 21:44:19.870 ,5,1,0.,24.0,0.,24.0
1979-07-17 21:44:43.870 ,5,0,0.,24.0,0.,24.0
1979-07-17 21:45:07.870 ,4,1,0.,24.0,0.,24.0
1979-07-17 21:45:31.870 ,4,0,0.,24.0,0.,24.0
1979-07-17 21:45:55.870 ,3,1,0.,24.0,0.,24.0
1979-07-17 21:46:19.870 ,3,0,0.,24.0,0.,24.0
1979-07-17 21:46:43.870 ,2,1,0.,24.0,0.,24.0
1979-07-17 21:47:07.870 ,2,0,0.,24.0,0.,24.0
1979-07-17 21:47:31.870 ,1,1,0.,24.0,0.,24.0
1979-07-17 21:47:55.870 ,1,0,0.,24.0,0.,24.0
1979-07-17 21:48:19.870 ,0,1,0.,24.0,0.,24.0
1979-07-17 21:48:43.870 ,0,0,0.,24.0,0.,24.0
1979-07-17 21:49:07.870 ,0,1,0.,24.0,0.,24.0
1979-07-17 21:49:31.870 ,0,0,0.,24.0,0.,24.0
1979-07-17 21:49:55.870 ,1,1,0.,24.0,0.,24.0
1979-07-17 21:50:19.870 ,1,0,0.,24.0,0.,24.0
1979-07-17 21:50:43.870 ,2,1,0.,24.0,0.,24.0
1979-07-17 21:51:07.870 ,2,0,0.,24.0,0.,24.0
1979-07-17 21:51:31.870 ,3,1,0.,24.0,0.,24.0
1979-07-17 21:51:55.870 ,3,0,0.,24.0,0.,24.0
1979-07-17 21:52:19.870 ,4,1,0.,24.0,0.,24.0
1979-07-17 21:52:43.870 ,4,0,0.,24.0,0.,24.0
1979-07-17 21:53:07.870 ,5,1,0.,24.0,0.,24.0
1979-07-17 21:53:31.870 ,5,0,0.,24.0,0.,24.0
1979-07-17 21:53:55.870 ,6,1,0.,24.0,0.,24.0
1979-07-17 21:54:19.870 ,6,0,0.,24.0,0.,24.0
1979-07-17 21:54:43.870 ,7,0,0.,24.0,0.,24.0
1979-07-17 21:55:07.870 ,7,0,0.,24.0,0.,24.0
1979-07-17 21:55:31.870 ,3,1,0.,24.0,0.,24.0
1979-07-17 21:55:55.870 ,0,1,0.,24.0,0.,24.0
1979-07-17 21:56:19.870 ,4,1,0.,24.0,0.,24.0
1979-07-17 21:56:43.870 ,7,1,0.,24.0,0.,24.0
1979-07-17 21:57:07.870 ,3,1,0.,24.0,0.,24.0
1979-07-17 21:57:31.870 ,0,1,0.,24.0,0.,24.0
1979-07-17 21:57:55.870 ,4,1,0.,24.0,0.,24.0
1979-07-17 21:58:19.870 ,7,1,0.,24.0,0.,24.0
1979-07-17 21:58:43.870 ,3,1,0.,24.0,0.,24.0
1979-07-17 21:59:07.870 ,0,1,0.,24.0,0.,24.0
1979-07-17 21:59:31.870 ,4,1,0.,24.0,0.,24.0
1979-07-17 21:59:55.870 ,7,1,0.,24.0,0.,24.0
1979-07-17 22:00:19.870 ,3,1,0.,24.0,0.,24.0
1979-07-17 22:00:43.870 ,0,1,0.,24.0,0.,24.0
1979-07-17 22:01:07.870 ,4,1,0.,24.0,0.,24.0
1979-07-17 22:01:31.870 ,7,1,0.,24.0,0.,24.0
1979-07-17 22:01:55.870 ,3,1,0.,24.0,0.,24.0
1979-07-17 22:02:19.870 ,0,1,0.,24.0,0.,24.0
1979-07-17 22:02:43.870 ,4,1,0.,24.0,0.,24.0
1979-07-17 22:03:07.870 ,7,1,0.,24.0,0.,24.0
1979-07-17 22:03:31.870 ,3,1,0.,24.0,0.,24.0
1979-07-17 22:03:55.870 ,0,1,0.,24.0,0.,24.0
1979-07-17 22:04:19.870 ,4,1,0.,24.0,0.,24.0
1979-07-17 22:04:43.870 ,7,1,0.,24.0,0.,24.0
1979-07-17 22:05:07.870 ,3,1,0.,24.0,0.,24.0
1979-07-17 22:05:31.870 ,0,1,0.,24.0,0.,24.0
1979-07-17 22:05:55.870 ,0,0,0.,24.0,0.,24.0
1979-07-17 22:06:19.870 ,0,0,0.,24.0,0.,24.0
1979-07-17 22:06:43.870 ,5,1,0.,24.0,0.,24.0
1979-07-17 22:07:07.870 ,5,0,0.,24.0,0.,24.0
1979-07-17 22:07:31.870 ,4,1,0.,24.0,0.,24.0
1979-07-17 22:07:55.870 ,4,0,0.,24.0,0.,24.0
1979-07-17 22:08:19.870 ,3,1,0.,24.0,0.,24.0
1979-07-17 22:16:43.870 ,6,0,0.,24.0,0.,24.0
1979-07-17 22:17:07.860 ,7,1,0.,24.0,0.,24.0
1979-07-17 22:17:31.860 ,7,0,0.,24.0,0.,24.0
1979-07-17 22:17:55.860 ,7,1,0.,24.0,0.,24.0
1979-07-17 22:18:19.860 ,7,0,0.,24.0,0.,24.0
1979-07-17 22:18:43.860 ,6,1,0.,24.0,0.,24.0
1979-07-17 22:19:07.860 ,6,0,0.,24.0,0.,24.0
1979-07-17 22:19:31.860 ,5,1,0.,24.0,0.,24.0
1979-07-17 22:19:55.860 ,5,0,0.,24.0,0.,24.0
1979-07-17 22:20:19.860 ,4,1,0.,24.0,0.,24.0
1979-07-17 22:20:43.860 ,4,0,0.,24.0,0.,24.0
1979-07-17 22:21:07.860 ,3,1,0.,24.0,0.,24.0
1979-07-17 22:21:31.860 ,3,0,0.,24.0,0.,24.0
1979-07-17 22:21:55.860 ,2,1,0.,24.0,0.,24.0
1979-07-17 22:22:19.860 ,2,0,0.,24.0,0.,24.0
1979-07-17 22:22:43.860 ,1,1,0.,24.0,0.,24.0
1979-07-17 22:23:07.860 ,1,0,0.,24.0,0.,24.0
1979-07-17 22:23:31.860 ,0,1,0.,24.0,0.,24.0
1979-07-17 22:23:55.860 ,0,0,0.,24.0,0.,24.0
1979-07-17 22:24:19.860 ,0,1,0.,24.0,0.,24.0
1979-07-17 22:24:43.860 ,0,0,0.,24.0,0.,24.0
1979-07-17 22:25:07.860 ,1,1,0.,24.0,0.,24.0
1979-07-17 22:25:31.860 ,1,0,0.,24.0,0.,24.0
1979-07-17 22:26:43.860 ,0,0,0.,24.0,0.,24.0
1979-07-17 22:27:07.860 ,0,0,0.,24.0,0.,24.0
1979-07-17 22:27:31.860 ,4,1,0.,24.0,0.,24.0
1979-07-17 22:27:55.860 ,4,0,0.,24.0,0.,24.0
1979-07-17 22:28:19.860 ,5,1,0.,24.0,0.,24.0
1979-07-17 22:28:43.860 ,5,0,0.,24.0,0.,24.0
1979-07-17 22:29:07.860 ,6,1,0.,24.0,0.,24.0
1979-07-17 22:29:31.860 ,6,0,0.,24.0,0.,24.0
1979-07-17 22:29:55.860 ,7,1,0.,24.0,0.,24.0
1979-07-17 22:30:19.860 ,7,0,0.,24.0,0.,24.0
1979-07-17 22:30:43.860 ,7,1,0.,24.0,0.,24.0
1979-07-17 22:31:07.860 ,7,0,0.,24.0,0.,24.0
1979-07-17 22:31:31.860 ,6,1,0.,24.0,0.,24.0
1979-07-17 22:31:55.860 ,6,0,0.,24.0,0.,24.0
1979-07-17 22:32:19.860 ,5,1,0.,24.0,0.,24.0
1979-07-17 22:32:43.860 ,5,0,0.,24.0,0.,24.0
1979-07-17 22:33:07.860 ,4,1,0.,24.0,0.,24.0
1979-07-17 22:33:31.860 ,4,0,0.,24.0,0.,24.0
1979-07-17 22:33:55.860 ,3,1,0.,24.0,0.,24.0
1979-07-17 22:34:19.860 ,3,0,0.,24.0,0.,24.0
1979-07-17 22:34:43.860 ,2,1,0.,24.0,0.,24.0
1979-07-17 22:35:07.860 ,2,0,0.,24.0,0.,24.0
1979-07-17 22:35:31.860 ,1,1,0.,24.0,0.,24.0
1979-07-17 22:35:55.860 ,1,0,0.,24.0,0.,24.0
1979-07-17 22:36:19.860 ,0,1,0.,24.0,0.,24.0
1979-07-17 22:36:43.860 ,0,0,0.,24.0,0.,24.0
1979-07-17 22:37:07.860 ,0,1,0.,24.0,0.,24.0
1979-07-17 22:37:31.860 ,0,0,0.,24.0,0.,24.0
1979-07-17 22:37:55.860 ,1,1,0.,24.0,0.,24.0
1979-07-17 22:38:19.860 ,1,0,0.,24.0,0.,24.0
1979-07-17 22:39:31.860 ,0,0,0.,24.0,0.,24.0
1979-07-17 22:39:55.860 ,0,0,0.,24.0,0.,24.0
1979-07-17 22:40:19.860 ,4,1,0.,24.0,0.,24.0
1979-07-17 22:40:43.860 ,4,0,0.,24.0,0.,24.0
1979-07-17 22:41:07.860 ,5,1,0.,24.0,0.,24.0
1979-07-17 22:41:31.860 ,5,0,0.,24.0,0.,24.0
1979-07-17 22:41:55.860 ,6,1,0.,24.0,0.,24.0
1979-07-17 22:42:19.860 ,6,0,0.,24.0,0.,24.0
1979-07-17 22:43:31.860 ,0,0,0.,24.0,0.,24.0
1979-07-17 22:43:55.860 ,0,1,0.,24.0,0.,24.0
1979-07-17 22:44:19.860 ,4,1,0.,24.0,0.,24.0
1979-07-17 22:44:43.860 ,7,1,0.,24.0,0.,24.0
1979-07-17 22:45:07.860 ,3,1,0.,24.0,0.,24.0
1979-07-17 22:45:31.860 ,0,1,0.,24.0,0.,24.0
1979-07-17 22:45:55.860 ,4,1,0.,24.0,0.,24.0
1979-07-17 22:46:19.860 ,7,1,0.,24.0,0.,24.0
1979-07-17 22:46:43.860 ,3,1,0.,24.0,0.,24.0
1979-07-17 22:47:07.860 ,0,1,0.,24.0,0.,24.0
1979-07-17 22:47:31.860 ,4,1,0.,24.0,0.,24.0
1979-07-17 22:47:55.860 ,7,1,0.,24.0,0.,24.0
1979-07-17 22:48:19.860 ,3,1,0.,24.0,0.,24.0
1979-07-17 22:48:43.860 ,0,1,0.,24.0,0.,24.0
1979-07-17 22:49:07.860 ,4,1,0.,24.0,0.,24.0
1979-07-17 22:49:31.860 ,7,1,0.,24.0,0.,24.0
1979-07-17 22:49:55.860 ,3,1,0.,24.0,0.,24.0
1979-07-17 22:50:19.860 ,0,1,0.,24.0,0.,24.0
1979-07-17 22:50:43.860 ,4,1,0.,24.0,0.,24.0
1979-07-17 22:51:07.860 ,7,1,0.,24.0,0.,24.0
1979-07-17 22:51:31.860 ,3,1,0.,24.0,0.,24.0
1979-07-17 22:51:55.860 ,0,1,0.,24.0,0.,24.0
1979-07-17 22:52:19.860 ,4,1,0.,24.0,0.,24.0
1979-07-17 22:52:43.860 ,7,1,0.,24.0,0.,24.0
1979-07-17 22:53:07.860 ,3,1,0.,24.0,0.,24.0
1979-07-17 22:53:31.860 ,0,1,0.,24.0,0.,24.0
1979-07-17 22:54:43.860 ,0,0,0.,24.0,0.,24.0
1979-07-17 22:55:07.860 ,0,0,0.,24.0,0.,24.0
1979-07-17 22:55:31.860 ,4,1,0.,24.0,0.,24.0
1979-07-17 22:55:55.860 ,4,0,0.,24.0,0.,24.0
1979-07-17 22:56:19.860 ,3,1,0.,24.0,0.,24.0
1979-07-17 22:56:43.860 ,3,0,0.,24.0,0.,24.0
1979-07-17 22:57:07.860 ,2,1,0.,24.0,0.,24.0
1979-07-17 22:57:31.860 ,2,0,0.,24.0,0.,24.0
1979-07-17 22:57:55.860 ,1,1,0.,24.0,0.,24.0
1979-07-17 22:58:19.860 ,1,0,0.,24.0,0.,24.0
1979-07-17 22:58:19.860 ,1,0,0.,24.0,0.,24.0
1979-07-17 22:58:43.860 ,0,0,,0,,0
1979-07-17 22:59:07.860 ,0,0,,0,,0
1979-07-17 23:07:17.460 ,0,0,0.,24.0,0.,24.0
1979-07-17 23:07:31.860 ,5,1,0.,24.0,0.,24.0
1979-07-17 23:07:55.860 ,5,0,0.,24.0,0.,24.0
1979-07-17 23:08:19.860 ,0,0,0.,24.0,0.,24.0
1979-07-17 23:08:43.860 ,0,0,0.,24.0,0.,24.0
1979-07-17 23:09:07.860 ,3,1,0.,24.0,0.,24.0
1979-07-17 23:09:31.860 ,3,0,0.,24.0,0.,24.0
1979-07-17 23:09:55.860 ,2,1,0.,24.0,0.,24.0
1979-07-17 23:10:19.860 ,2,0,0.,24.0,0.,24.0
1979-07-17 23:10:43.860 ,1,1,0.,24.0,0.,24.0
1979-07-17 23:11:07.860 ,1,0,0.,24.0,0.,24.0
1979-07-17 23:11:31.860 ,0,1,0.,24.0,0.,24.0
1979-07-17 23:11:55.860 ,0,0,0.,24.0,0.,24.0
1979-07-17 23:12:19.860 ,0,1,0.,24.0,0.,24.0
1979-07-17 23:12:43.860 ,0,0,0.,24.0,0.,24.0
1979-07-17 23:13:07.860 ,1,1,0.,24.0,0.,24.0
1979-07-17 23:13:31.860 ,1,0,0.,24.0,0.,24.0
1979-07-17 23:13:55.860 ,2,1,0.,24.0,0.,24.0
1979-07-17 23:14:19.860 ,2,0,0.,24.0,0.,24.0
1979-07-17 23:14:43.860 ,3,1,0.,24.0,0.,24.0
1979-07-17 23:15:07.860 ,3,0,0.,24.0,0.,24.0
1979-07-17 23:15:31.860 ,4,1,0.,24.0,0.,24.0
1979-07-17 23:15:55.860 ,4,0,0.,24.0,0.,24.0
1979-07-17 23:16:19.860 ,5,1,0.,24.0,0.,24.0
1979-07-17 23:16:43.860 ,5,0,0.,24.0,0.,24.0
1979-07-17 23:17:07.860 ,6,1,0.,24.0,0.,24.0
1979-07-17 23:17:31.860 ,6,0,0.,24.0,0.,24.0
1979-07-17 23:17:55.860 ,7,1,0.,24.0,0.,24.0
1979-07-17 23:18:19.860 ,7,0,0.,24.0,0.,24.0
1979-07-17 23:18:43.860 ,7,1,0.,24.0,0.,24.0
1979-07-17 23:19:07.860 ,7,0,0.,24.0,0.,24.0
1979-07-17 23:19:31.860 ,6,1,0.,24.0,0.,24.0
1979-07-17 23:19:55.860 ,6,0,0.,24.0,0.,24.0
1979-07-17 23:20:19.860 ,5,1,0.,24.0,0.,24.0
1979-07-17 23:20:43.860 ,5,0,0.,24.0,0.,24.0
1979-07-17 23:21:07.860 ,4,1,0.,24.0,0.,24.0
1979-07-17 23:21:31.860 ,4,0,0.,24.0,0.,24.0
1979-07-17 23:21:55.860 ,3,1,0.,24.0,0.,24.0
1979-07-17 23:22:19.860 ,3,0,0.,24.0,0.,24.0
1979-07-17 23:22:43.860 ,2,1,0.,24.0,0.,24.0
1979-07-17 23:23:07.860 ,2,0,0.,24.0,0.,24.0
1979-07-17 23:23:31.860 ,1,1,0.,24.0,0.,24.0
1979-07-17 23:23:55.860 ,1,0,0.,24.0,0.,24.0
1979-07-17 23:24:19.860 ,0,1,0.,24.0,0.,24.0
1979-07-17 23:24:43.860 ,0,0,0.,24.0,0.,24.0
1979-07-17 23:25:07.860 ,0,1,0.,24.0,0.,24.0
1979-07-17 23:25:31.860 ,0,0,0.,24.0,0.,24.0
1979-07-17 23:25:55.860 ,1,1,0.,24.0,0.,24.0
1979-07-17 23:26:19.860 ,1,0,0.,24.0,0.,24.0
1979-07-17 23:26:43.860 ,2,1,0.,24.0,0.,24.0
1979-07-17 23:27:07.860 ,2,0,0.,24.0,0.,24.0
1979-07-17 23:27:31.860 ,3,1,0.,24.0,0.,24.0
1979-07-17 23:27:55.860 ,3,0,0.,24.0,0.,24.0
1979-07-17 23:28:19.860 ,4,1,0.,24.0,0.,24.0
1979-07-17 23:28:43.860 ,4,0,0.,24.0,0.,24.0
1979-07-17 23:29:07.860 ,5,1,0.,24.0,0.,24.0
1979-07-17 23:29:31.860 ,5,0,0.,24.0,0.,24.0
1979-07-17 23:29:55.860 ,6,1,0.,24.0,0.,24.0
1979-07-17 23:30:19.860 ,6,0,0.,24.0,0.,24.0
1979-07-17 23:30:43.860 ,7,0,0.,24.0,0.,24.0
1979-07-17 23:31:07.860 ,7,0,0.,24.0,0.,24.0
1979-07-17 23:31:31.860 ,3,1,0.,24.0,0.,24.0
1979-07-17 23:31:55.860 ,0,1,0.,24.0,0.,24.0
1979-07-17 23:32:19.860 ,4,1,0.,24.0,0.,24.0
1979-07-17 23:32:43.860 ,7,1,0.,24.0,0.,24.0
1979-07-17 23:33:07.860 ,3,1,0.,24.0,0.,24.0
1979-07-17 23:33:31.860 ,0,1,0.,24.0,0.,24.0
1979-07-17 23:33:55.860 ,4,1,0.,24.0,0.,24.0
1979-07-17 23:34:19.860 ,7,1,0.,24.0,0.,24.0
1979-07-17 23:34:43.860 ,3,1,0.,24.0,0.,24.0
1979-07-17 23:35:07.860 ,0,1,0.,24.0,0.,24.0
1979-07-17 23:35:31.860 ,4,1,0.,24.0,0.,24.0
1979-07-17 23:35:55.860 ,7,1,0.,24.0,0.,24.0
1979-07-17 23:36:19.860 ,3,1,0.,24.0,0.,24.0
1979-07-17 23:36:43.860 ,0,1,0.,24.0,0.,24.0
1979-07-17 23:37:07.860 ,4,1,0.,24.0,0.,24.0
1979-07-17 23:37:31.860 ,7,1,0.,24.0,0.,24.0
1979-07-17 23:37:55.860 ,3,1,0.,24.0,0.,24.0
1979-07-17 23:38:19.860 ,0,1,0.,24.0,0.,24.0
1979-07-17 23:38:43.860 ,4,1,0.,24.0,0.,24.0
1979-07-17 23:39:07.860 ,7,1,0.,24.0,0.,24.0
1979-07-17 23:39:31.860 ,3,1,0.,24.0,0.,24.0
1979-07-17 23:39:55.860 ,0,1,0.,24.0,0.,24.0
1979-07-17 23:40:19.860 ,4,1,0.,24.0,0.,24.0
1979-07-17 23:40:43.860 ,7,1,0.,24.0,0.,24.0
1979-07-17 23:41:07.860 ,3,1,0.,24.0,0.,24.0
1979-07-17 23:41:31.860 ,0,1,0.,24.0,0.,24.0
1979-07-17 23:41:55.860 ,0,0,0.,24.0,0.,24.0
1979-07-17 23:42:19.860 ,0,0,0.,24.0,0.,24.0
1979-07-17 23:42:43.860 ,5,1,0.,24.0,0.,24.0
1979-07-17 23:43:07.860 ,5,0,0.,24.0,0.,24.0
1979-07-17 23:43:31.860 ,4,1,0.,24.0,0.,24.0
1979-07-17 23:43:55.860 ,4,0,0.,24.0,0.,24.0
1979-07-17 23:44:19.860 ,3,1,0.,24.0,0.,24.0
1979-07-17 23:44:43.860 ,3,0,0.,24.0,0.,24.0
1979-07-17 23:45:07.860 ,2,1,0.,24.0,0.,24.0
1979-07-17 23:45:31.860 ,2,0,0.,24.0,0.,24.0
1979-07-17 23:45:55.860 ,1,1,0.,24.0,0.,24.0
1979-07-17 23:46:19.860 ,1,0,0.,24.0,0.,24.0
1979-07-17 23:46:43.860 ,0,1,0.,24.0,0.,24.0
1979-07-17 23:47:07.860 ,0,0,0.,24.0,0.,24.0
1979-07-17 23:47:31.860 ,0,1,0.,24.0,0.,24.0
1979-07-17 23:47:55.860 ,0,0,0.,24.0,0.,24.0
1979-07-17 23:48:19.860 ,1,1,0.,24.0,0.,24.0
1979-07-17 23:48:43.860 ,1,0,0.,24.0,0.,24.0
1979-07-17 23:49:07.860 ,2,1,0.,24.0,0.,24.0
1979-07-17 23:49:31.860 ,2,0,0.,24.0,0.,24.0
1979-07-17 23:49:55.860 ,3,1,0.,24.0,0.,24.0
1979-07-17 23:50:19.860 ,3,0,0.,24.0,0.,24.0
1979-07-17 23:50:43.860 ,4,1,0.,24.0,0.,24.0
1979-07-17 23:51:07.860 ,4,0,0.,24.0,0.,24.0
1979-07-17 23:51:31.860 ,5,1,0.,24.0,0.,24.0
1979-07-17 23:51:55.860 ,5,0,0.,24.0,0.,24.0
1979-07-17 23:52:19.860 ,6,1,0.,24.0,0.,24.0
1979-07-17 23:52:43.860 ,6,0,0.,24.0,0.,24.0
1979-07-17 23:53:07.860 ,7,1,0.,24.0,0.,24.0
1979-07-17 23:53:31.860 ,7,0,0.,24.0,0.,24.0
1979-07-17 23:53:55.860 ,7,1,0.,24.0,0.,24.0
1979-07-17 23:54:19.860 ,7,0,0.,24.0,0.,24.0
1979-07-17 23:54:43.860 ,6,1,0.,24.0,0.,24.0
1979-07-17 23:55:07.860 ,6,0,0.,24.0,0.,24.0
1979-07-17 23:55:31.860 ,5,1,0.,24.0,0.,24.0
1979-07-17 23:55:55.860 ,5,0,0.,24.0,0.,24.0
1979-07-17 23:56:19.860 ,4,1,0.,24.0,0.,24.0
1979-07-17 23:56:43.860 ,4,0,0.,24.0,0.,24.0
1979-07-17 23:57:07.860 ,3,1,0.,24.0,0.,24.0
1979-07-17 23:57:31.860 ,3,0,0.,24.0,0.,24.0
1979-07-17 23:57:55.860 ,2,1,0.,24.0,0.,24.0
1979-07-17 23:58:19.860 ,2,0,0.,24.0,0.,24.0
1979-07-17 23:58:43.860 ,1,1,0.,24.0,0.,24.0
1979-07-17 23:59:07.860 ,1,0,0.,24.0,0.,24.0
1979-07-17 23:59:31.860 ,0,1,0.,24.0,0.,24.0
1979-07-17 23:59:55.860 ,0,0,0.,24.0,0.,24.0
1979-07-18 00:00:19.860 ,0,1,0.,24.0,0.,24.0
